EW4931 Weather Reports


Display with metric or nautical units.
time (UTC)temp
F
wind
direction
speed
MPH
gust
MPH
rain 1hr
in
rain 24hr
in
rain mn
in
humidity
%
barometer
mb
20260831172306 63 199 1.0 3.0 0.00 0.00 0.00 79 1006.6
20260831171803 64 195 0.0 3.0 0.00 0.00 0.00 79 1006.5
20260831171304 64 199 2.0 3.0 0.00 0.00 0.00 79 1006.6
20260831170804 64 228 0.0 5.0 0.00 0.00 0.00 78 1006.5
20260831170305 64 265 1.0 5.0 0.00 0.00 0.00 77 1006.5
20260831165804 64 257 1.0 2.0 0.00 0.00 0.00 77 1006.4
20260831165305 64 244 1.0 2.0 0.00 0.00 0.00 77 1006.4
20260831164805 64 247 1.0 5.0 0.00 0.00 0.00 76 1006.4
20260831164304 65 281 2.0 5.0 0.00 0.00 0.00 76 1006.3
20260831164027 65 264 2.0 4.0 0.00 0.00 0.00 75 1006.4
20260831163305 65 243 1.0 5.0 0.00 0.00 0.00 74 1006.4
20260831162805 65 252 2.0 5.0 0.00 0.00 0.00 73 1006.3
20260831162306 65 226 1.0 5.0 0.00 0.00 0.00 73 1006.4
20260831161804 65 265 0.0 5.0 0.00 0.00 0.00 73 1006.4
20260831161305 65 290 2.0 3.0 0.00 0.00 0.00 72 1006.3
20260831160805 65 254 1.0 5.0 0.00 0.00 0.00 72 1006.4
20260831160304 66 230 2.0 5.0 0.00 0.00 0.00 72 1006.4
20260831155805 66 257 2.0 4.0 0.00 0.00 0.00 72 1006.4
20260831155306 66 285 1.0 3.0 0.00 0.00 0.00 73 1006.4
20260831154804 66 279 0.0 4.0 0.00 0.00 0.00 73 1006.5
20260831154305 65 279 1.0 4.0 0.00 0.00 0.00 72 1006.4
20260831154249 65 289 1.0 4.0 0.00 0.00 0.00 73 1006.2
20260831153758 65 326 2.0 9.0 0.00 0.00 0.00 72 1006.4
20260831153023 65 269 4.0 9.0 0.00 0.00 0.00 71 1006.4
20260831152306 65 306 3.0 6.0 0.00 0.00 0.00 71 1006.4
20260831151806 65 306 1.0 9.0 0.00 0.00 0.00 72 1006.4
20260831151305 65 272 5.0 9.0 0.00 0.00 0.00 70 1006.5
20260831150805 66 298 3.0 7.0 0.00 0.00 0.00 72 1006.5
20260831150305 66 261 2.0 6.0 0.00 0.00 0.00 71 1006.6
20260831145805 66 243 1.0 7.0 0.00 0.00 0.00 71 1006.5
20260831145306 66 312 2.0 7.0 0.00 0.00 0.00 70 1006.4
20260831144805 66 283 3.0 9.0 0.00 0.00 0.00 69 1006.4
20260831144523 67 286 4.0 9.0 0.00 0.00 0.00 70 1006.3
20260831143805 66 323 3.0 6.0 0.00 0.00 0.00 72 1006.2
20260831143304 66 310 2.0 7.0 0.00 0.00 0.00 72 1006.1
20260831142805 66 275 4.0 7.0 0.00 0.00 0.00 71 1006.1
20260831142306 66 290 4.0 11.0 0.00 0.00 0.00 71 1006.1
20260831141805 65 245 4.0 11.0 0.00 0.00 0.00 71 1006.1
20260831141304 65 245 4.0 12.0 0.00 0.00 0.00 73 1006.1
20260831140804 65 300 7.0 12.0 0.00 0.00 0.00 73 1006.1
20260831140304 65 285 4.0 11.0 0.00 0.00 0.00 73 1006.1
20260831135805 65 226 3.0 10.0 0.00 0.00 0.00 73 1006.2
20260831135537 65 266 2.0 10.0 0.00 0.00 0.00 74 1006.1
20260831134805 65 288 6.0 10.0 0.00 0.00 0.00 74 1006.1
20260831134305 65 313 5.0 11.0 0.00 0.00 0.00 74 1006.2
20260831133805 65 265 3.0 13.0 0.00 0.00 0.00 75 1006.1
20260831133303 65 276 5.0 13.0 0.00 0.00 0.00 74 1006.2
20260831133034 65 269 6.0 16.0 0.00 0.00 0.00 74 1006.1
20260831132524 65 266 4.0 16.0 0.00 0.00 0.00 74 1006.2
20260831131804 65 283 5.0 14.0 0.00 0.00 0.00 75 1006.1
20260831131304 65 275 4.0 14.0 0.00 0.00 0.00 75 1006.1
20260831130804 66 274 7.0 17.0 0.00 0.00 0.00 75 1006.1
20260831130304 66 316 8.0 17.0 0.00 0.00 0.00 74 1006.0
20260831125806 66 268 4.0 12.0 0.00 0.00 0.00 75 1006.0
20260831125306 66 281 4.0 12.0 0.00 0.00 0.00 75 1006.0
20260831124805 67 258 5.0 12.0 0.00 0.00 0.00 74 1006.0
20260831124305 67 300 4.0 12.0 0.00 0.00 0.00 74 1006.0
20260831123805 67 278 6.0 12.0 0.00 0.00 0.00 74 1006.0
20260831123306 67 268 6.0 12.0 0.00 0.00 0.00 74 1005.8
20260831122805 68 279 7.0 13.0 0.00 0.00 0.00 73 1005.8
20260831122306 67 255 7.0 13.0 0.00 0.00 0.00 73 1005.8
20260831122008 67 241 4.0 9.0 0.00 0.00 0.00 75 1005.7
20260831121231 67 269 2.0 10.0 0.00 0.00 0.00 75 1005.7
20260831120738 67 282 6.0 10.0 0.00 0.00 0.00 75 1005.7
20260831120231 68 299 4.0 9.0 0.00 0.00 0.00 75 1005.6
20260831115731 68 292 4.0 7.0 0.00 0.00 0.00 75 1005.6
20260831115231 68 269 5.0 7.0 0.00 0.00 0.00 76 1005.6
20260831114731 68 286 2.0 6.0 0.00 0.00 0.00 75 1005.6
20260831114231 67 285 2.0 9.0 0.00 0.00 0.00 76 1005.6
20260831113731 67 257 3.0 9.0 0.00 0.00 0.00 75 1005.5
20260831113449 67 271 5.0 9.0 0.00 0.00 0.00 75 1005.5
20260831112730 67 289 3.0 7.0 0.00 0.00 0.00 76 1005.5
20260831112231 67 302 4.0 7.0 0.00 0.00 0.00 76 1005.4
20260831111731 67 282 3.0 7.0 0.00 0.00 0.00 77 1005.4
20260831111423 67 303 5.0 11.0 0.00 0.00 0.00 77 1005.4
20260831110455 67 283 4.0 9.0 0.00 0.00 0.00 76 1005.3
20260831105952 67 285 4.0 9.0 0.00 0.00 0.00 77 1005.4
20260831105230 66 309 3.0 7.0 0.00 0.00 0.00 78 1005.2
20260831104731 66 306 4.0 9.0 0.00 0.00 0.00 79 1005.1
20260831104232 66 292 4.0 10.0 0.00 0.00 0.00 79 1005.2
20260831103732 66 271 6.0 10.0 0.00 0.00 0.00 79 1005.3
20260831103231 66 313 6.0 12.0 0.00 0.00 0.00 80 1005.3
20260831102730 65 265 4.0 12.0 0.00 0.00 0.00 80 1005.3
20260831102224 65 290 7.0 11.0 0.00 0.00 0.00 80 1005.4
20260831101725 65 285 4.0 11.0 0.00 0.00 0.00 80 1005.3
20260831101224 65 281 4.0 10.0 0.00 0.00 0.00 80 1005.3
20260831100722 65 289 3.0 10.0 0.00 0.00 0.00 80 1005.2
20260831100223 65 289 4.0 11.0 0.00 0.00 0.00 80 1005.3
20260831095723 65 244 4.0 11.0 0.00 0.00 0.00 79 1005.3
20260831095222 66 302 4.0 9.0 0.00 0.00 0.00 79 1005.2
20260831094722 66 293 2.0 7.0 0.00 0.00 0.00 81 1005.2
20260831094222 65 275 4.0 12.0 0.00 0.00 0.00 82 1005.2
20260831093722 64 286 4.0 13.0 0.00 0.00 0.00 82 1005.2
20260831093221 64 275 5.0 13.0 0.00 0.00 0.00 82 1005.2
20260831092944 64 292 6.0 12.0 0.00 0.00 0.00 82 1005.1
20260831092222 64 279 4.0 11.0 0.00 0.00 0.00 83 1005.1
20260831091722 64 309 7.0 11.0 0.00 0.00 0.00 82 1005.0
20260831091221 64 281 3.0 13.0 0.00 0.00 0.00 83 1005.0
20260831090938 64 274 3.0 13.0 0.00 0.00 0.00 83 1005.0
20260831090222 64 271 6.0 14.0 0.00 0.00 0.00 84 1005.0
20260831085721 64 295 7.0 14.0 0.00 0.00 0.00 84 1004.9
20260831085220 64 265 8.0 15.0 0.00 0.00 0.00 84 1004.7
20260831084721 64 272 6.0 15.0 0.00 0.00 0.00 84 1004.8
20260831084221 64 274 4.0 12.0 0.00 0.00 0.00 85 1004.7
20260831083720 64 290 7.0 12.0 0.00 0.00 0.00 84 1004.7
20260831083222 64 279 6.0 14.0 0.00 0.00 0.00 84 1004.7
20260831082720 64 312 7.0 14.0 0.00 0.00 0.00 85 1004.6
20260831082221 64 299 5.0 13.0 0.00 0.00 0.00 85 1004.5
20260831081720 64 282 8.0 13.0 0.00 0.00 0.00 84 1004.5
20260831081220 64 261 7.0 11.0 0.00 0.00 0.00 85 1004.4
20260831080720 64 300 4.0 14.0 0.00 0.00 0.00 86 1004.4
20260831080219 63 316 7.0 14.0 0.00 0.00 0.00 87 1004.3
20260831075720 63 316 5.0 12.0 0.00 0.00 0.00 87 1004.3
20260831075221 63 290 5.0 15.0 0.00 0.00 0.00 87 1004.3
20260831074720 63 278 8.0 15.0 0.00 0.00 0.00 88 1004.2
20260831074444 63 313 8.0 12.0 0.00 0.00 0.00 88 1004.2
20260831073719 63 309 6.0 12.0 0.00 0.00 0.00 88 1004.2
20260831073219 63 271 4.0 12.0 0.00 0.00 0.00 88 1004.2
20260831072719 63 289 7.0 15.0 0.00 0.00 0.00 88 1004.1
20260831072219 63 250 6.0 15.0 0.00 0.00 0.00 89 1004.1
20260831071719 63 288 7.0 14.0 0.00 0.00 0.00 90 1004.1
20260831071218 62 292 6.0 10.0 0.00 0.00 0.00 90 1003.9
20260831070719 62 282 6.0 12.0 0.00 0.00 0.00 91 1003.9
20260831070442 62 296 6.0 12.0 0.00 0.00 0.00 91 1003.9
20260831065719 62 312 5.0 11.0 0.00 0.00 0.00 90 1003.8
20260831065438 62 340 5.0 15.0 0.00 0.00 0.00 90 1003.8
20260831064718 62 289 5.0 15.0 0.00 0.00 0.00 91 1003.8
20260831064219 62 299 7.0 13.0 0.00 0.00 0.00 91 1003.7
20260831063718 62 288 7.0 12.0 0.00 0.00 0.00 91 1003.6
20260831063218 62 327 7.0 13.0 0.00 0.00 0.00 91 1003.5
20260831062718 62 268 4.0 13.0 0.00 0.00 0.00 91 1003.5
20260831062217 63 309 5.0 13.0 0.00 0.00 0.00 90 1003.4
20260831061717 63 300 5.0 12.0 0.00 0.00 0.00 90 1003.3
20260831061218 63 262 5.0 13.0 0.00 0.00 0.00 90 1003.4
20260831060717 63 285 5.0 13.0 0.00 0.00 0.00 90 1003.3
20260831060440 63 269 5.0 10.0 0.00 0.00 0.00 90 1003.3
20260831055717 64 298 3.0 10.0 0.00 0.00 0.00 90 1003.2
20260831055217 64 300 4.0 10.0 0.00 0.00 0.00 90 1003.2
20260831054717 64 283 6.0 10.0 0.00 0.00 0.00 89 1003.1
20260831054217 64 275 3.0 13.0 0.00 0.00 0.00 89 1003.1
20260831053716 64 235 5.0 13.0 0.00 0.00 0.00 89 1003.0
20260831053217 64 300 3.0 10.0 0.00 0.00 0.00 89 1002.9
20260831052716 64 282 4.0 10.0 0.00 0.00 0.00 90 1002.8
20260831052216 63 276 4.0 11.0 0.00 0.00 0.00 90 1002.8
20260831051716 63 276 5.0 11.0 0.00 0.00 0.00 90 1002.9
20260831051229 63 278 3.0 11.0 0.00 0.00 0.00 90 1002.8
20260831050716 63 268 4.0 12.0 0.00 0.00 0.00 90 1002.8
20260831050448 63 271 6.0 12.0 0.00 0.00 0.00 91 1002.7
20260831045717 63 285 4.0 13.0 0.00 0.00 0.00 91 1002.7
20260831045217 63 255 5.0 13.0 0.00 0.00 0.00 91 1002.7
20260831044716 63 245 3.0 9.0 0.00 0.00 0.00 92 1002.6
20260831044216 63 281 4.0 13.0 0.00 0.00 0.00 92 1002.5
20260831043940 63 299 3.0 13.0 0.00 0.00 0.00 92 1002.5
20260831043216 63 272 6.0 12.0 0.00 0.00 0.00 93 1002.5
20260831042715 63 271 2.0 7.0 0.00 0.00 0.00 94 1002.5
20260831042215 63 282 4.0 7.0 0.00 0.00 0.00 94 1002.4
20260831041715 63 278 2.0 6.0 0.00 0.00 0.00 94 1002.3
20260831041438 63 269 2.0 4.0 0.00 0.00 0.00 94 1002.4
20260831040728 63 269 2.0 4.0 0.00 0.00 0.00 94 1002.4
20260831040215 63 234 1.0 5.0 0.00 0.00 0.00 94 1002.3
20260831035715 63 252 2.0 6.0 0.00 0.00 0.00 95 1002.3
20260831035215 63 274 3.0 6.0 0.00 0.00 0.00 95 1002.2
20260831034715 63 272 2.0 7.0 0.00 0.00 0.00 95 1002.3
20260831034440 63 265 3.0 7.0 0.00 0.00 0.00 95 1002.2
20260831033715 63 312 2.0 6.0 0.00 0.00 0.00 95 1002.2
20260831033436 63 274 1.0 5.0 0.00 0.00 0.00 95 1002.2
20260831032713 63 275 2.0 4.0 0.00 0.00 0.00 95 1002.1
20260831032214 63 313 1.0 5.0 0.00 0.00 0.00 95 1002.1
20260831031726 63 282 2.0 6.0 0.00 0.00 0.00 95 1002.1
20260831031214 63 309 3.0 5.0 0.00 0.00 0.00 95 1002.0
20260831030727 63 279 2.0 9.0 0.00 0.00 0.00 95 1002.1
20260831030438 63 275 4.0 9.0 0.00 0.00 0.00 95 1002.1
20260831025713 63 275 2.0 4.0 0.00 0.00 0.00 95 1002.1
20260831025440 63 290 1.0 3.0 0.00 0.00 0.00 95 1002.1
20260831024713 63 303 1.0 3.0 0.00 0.00 0.00 95 1002.1
20260831024218 63 282 0.0 4.0 0.00 0.00 0.00 95 1002.0
20260831023713 63 274 0.0 4.0 0.00 0.00 0.00 95 1002.1
20260831023213 63 250 1.0 3.0 0.00 0.00 0.00 95 1002.0
20260831022713 63 290 1.0 2.0 0.00 0.00 0.00 95 1002.0
20260831022213 63 237 1.0 2.0 0.00 0.00 0.00 95 1002.1
20260831021713 63 272 0.0 2.0 0.00 0.00 0.00 95 1002.1
20260831021213 63 272 0.0 2.0 0.00 0.00 0.00 95 1002.1
20260831020712 63 288 1.0 2.0 0.00 0.00 0.00 95 1002.0
20260831020212 63 288 0.0 3.0 0.00 0.00 0.00 95 1002.0
20260831015712 63 288 0.0 3.0 0.00 0.00 0.00 95 1001.9
20260831015214 63 288 0.0 3.0 0.00 0.00 0.00 95 1001.9
20260831014713 63 289 1.0 2.0 0.00 0.00 0.00 95 1001.9
20260831014213 63 289 0.0 2.0 0.00 0.00 0.00 95 1001.9
20260831013939 63 289 0.0 2.0 0.00 0.00 0.00 95 1001.8
20260831013213 63 289 0.0 2.0 0.00 0.00 0.00 95 1001.9
20260831012713 63 289 0.0 2.0 0.00 0.00 0.00 95 1001.8
20260831012212 63 289 0.0 2.0 0.00 0.00 0.00 95 1001.8
20260831011712 63 289 0.0 2.0 0.00 0.00 0.00 94 1001.8
20260831011441 63 289 0.0 1.0 0.00 0.00 0.00 94 1001.8
20260831010713 63 289 0.0 1.0 0.00 0.00 0.00 94 1001.9
20260831010212 63 289 0.0 1.0 0.00 0.00 0.00 94 1001.9
20260831005932 63 289 0.0 1.0 0.00 0.00 0.00 94 1001.9
20260831005211 63 289 1.0 2.0 0.00 0.00 0.00 95 1001.9
20260831004711 63 289 0.0 2.0 0.00 0.00 0.00 94 1001.9
20260831004211 63 203 0.0 0.0 0.00 0.00 0.00 94 1001.9
20260831003712 63 203 0.0 0.0 0.00 0.00 0.00 94 1002.0
20260831003434 63 203 0.0 0.0 0.00 0.00 0.00 94 1002.0
20260831002711 63 203 0.0 0.0 0.00 0.00 0.00 94 1002.1
20260831002211 63 203 0.0 0.0 0.00 0.00 0.00 94 1002.1
20260831001711 63 203 0.0 0.0 0.00 0.00 0.00 94 1002.1
20260831001211 63 203 0.0 1.0 0.00 0.00 0.00 94 1002.1
20260831000913 63 203 0.0 1.0 0.00 0.00 0.00 94 1002.1
20260830235711 63 203 0.0 0.0 0.00 0.00 0.00 94 1002.1
20260830235210 63 203 0.0 0.0 0.00 0.00 0.00 94 1002.0
20260830234710 63 203 0.0 0.0 0.00 0.00 0.00 94 1001.9
20260830234211 63 203 0.0 0.0 0.00 0.00 0.00 94 1002.0
20260830233710 63 203 0.0 1.0 0.00 0.00 0.00 94 1002.0
20260830233210 63 203 0.0 1.0 0.00 0.00 0.00 94 1002.2
20260830232935 63 203 0.0 1.0 0.00 0.00 0.00 94 1002.2
20260830232210 63 203 0.0 1.0 0.00 0.00 0.00 94 1002.2
20260830231710 63 203 0.0 1.0 0.00 0.00 0.00 94 1002.2
20260830231434 63 203 0.0 1.0 0.00 0.00 0.00 94 1002.1
20260830230709 63 203 0.0 0.0 0.00 0.00 0.00 94 1002.1
20260830230210 63 203 0.0 0.0 0.00 0.00 0.00 94 1002.1
20260830225710 63 203 0.0 0.0 0.00 0.00 0.00 93 1002.1
20260830225641 63 203 0.0 2.0 0.00 0.00 0.00 93 1002.2
20260830224213 63 175 1.0 4.0 0.00 0.00 0.00 93 1002.2
20260830223709 63 173 0.0 4.0 0.00 0.00 0.00 93 1002.2
20260830223208 63 180 0.0 2.0 0.00 0.00 0.00 93 1002.2
20260830222937 63 214 1.0 2.0 0.00 0.00 0.00 93 1002.2
20260830222209 63 217 0.0 2.0 0.00 0.00 0.00 93 1002.2
20260830221709 63 219 0.0 2.0 0.00 0.00 0.00 93 1002.2
20260830221209 63 216 0.0 2.0 0.00 0.00 0.00 93 1002.2
20260830220933 64 190 0.0 2.0 0.00 0.00 0.00 93 1002.2
20260830220208 64 135 0.0 2.0 0.00 0.00 0.00 93 1002.2
20260830215708 64 193 0.0 3.0 0.00 0.00 0.00 93 1002.3
20260830215208 64 173 0.0 3.0 0.00 0.00 0.00 93 1002.3
20260830214932 64 197 0.0 2.0 0.00 0.00 0.00 92 1002.5
20260830214207 64 197 0.0 2.0 0.00 0.00 0.00 93 1002.4
20260830213708 64 197 0.0 2.0 0.00 0.00 0.00 92 1002.5
20260830213207 64 197 1.0 2.0 0.00 0.00 0.00 92 1002.5
20260830212707 64 175 0.0 2.0 0.00 0.00 0.00 92 1002.6
20260830212208 64 231 0.0 1.0 0.00 0.00 0.00 92 1002.6
20260830211707 64 231 0.0 2.0 0.00 0.00 0.00 92 1002.6
20260830211207 64 235 1.0 3.0 0.00 0.00 0.00 92 1002.7
20260830210927 64 192 0.0 3.0 0.00 0.00 0.00 91 1002.7
20260830210432 64 209 0.0 4.0 0.00 0.00 0.00 91 1002.7
20260830205707 64 251 0.0 4.0 0.00 0.00 0.00 91 1002.7
20260830205207 64 209 0.0 4.0 0.00 0.00 0.00 91 1002.7
20260830204707 64 259 1.0 4.0 0.00 0.00 0.00 91 1002.8
20260830204206 64 204 2.0 3.0 0.00 0.00 0.00 91 1002.7
20260830203707 64 233 0.0 3.0 0.00 0.00 0.00 91 1002.8
20260830203207 64 233 2.0 3.0 0.00 0.00 0.00 91 1002.9
20260830202931 64 186 1.0 3.0 0.00 0.00 0.00 91 1002.9
20260830202206 64 235 0.0 6.0 0.00 0.00 0.00 91 1002.9
20260830201706 64 216 4.0 6.0 0.00 0.00 0.00 91 1002.9
20260830201207 64 224 3.0 6.0 0.00 0.00 0.00 91 1002.9
20260830200706 64 213 2.0 5.0 0.00 0.00 0.00 91 1002.9
20260830200427 64 197 2.0 4.0 0.00 0.00 0.00 91 1003.0
20260830195705 64 269 0.0 4.0 0.00 0.00 0.00 91 1003.0
20260830195207 64 182 1.0 5.0 0.00 0.00 0.00 91 1002.9
20260830194707 64 216 3.0 5.0 0.00 0.00 0.00 92 1003.0
20260830194207 64 183 2.0 4.0 0.00 0.00 0.00 92 1003.0
20260830193706 64 233 2.0 4.0 0.00 0.00 0.00 92 1003.1
20260830193205 64 200 1.0 4.0 0.00 0.00 0.00 92 1003.1
20260830192705 64 159 1.0 5.0 0.00 0.00 0.00 92 1003.1
20260830192206 64 172 0.0 5.0 0.00 0.00 0.00 92 1003.1
20260830191707 64 192 3.0 4.0 0.00 0.00 0.00 92 1003.1
20260830191204 64 169 1.0 4.0 0.00 0.00 0.00 92 1003.2
20260830190705 64 231 1.0 5.0 0.00 0.00 0.00 92 1003.2
20260830190204 64 213 1.0 5.0 0.00 0.00 0.00 92 1003.2
20260830185706 64 219 2.0 5.0 0.00 0.00 0.00 92 1003.1
20260830185204 64 204 3.0 5.0 0.00 0.00 0.00 92 1003.2
20260830184707 64 189 0.0 4.0 0.00 0.00 0.00 92 1003.2
20260830184206 64 137 1.0 6.0 0.00 0.00 0.00 92 1003.2
20260830183705 64 185 3.0 6.0 0.00 0.00 0.00 92 1003.2
20260830183205 64 190 0.0 4.0 0.00 0.00 0.00 92 1003.2
20260830182705 64 189 2.0 4.0 0.00 0.00 0.00 91 1003.3
20260830182434 64 213 1.0 4.0 0.00 0.00 0.00 91 1003.3
20260830181705 64 204 1.0 3.0 0.00 0.00 0.00 91 1003.3
20260830181434 64 193 1.0 5.0 0.00 0.00 0.00 91 1003.4
20260830180705 64 197 0.0 5.0 0.00 0.00 0.00 91 1003.4
20260830180205 64 196 2.0 6.0 0.00 0.00 0.00 91 1003.4
20260830175704 64 180 1.0 6.0 0.00 0.00 0.00 91 1003.4
20260830175428 64 268 2.0 5.0 0.00 0.00 0.00 91 1003.4
20260830174703 64 224 2.0 7.0 0.00 0.00 0.00 91 1003.4
20260830174204 64 224 0.0 7.0 0.00 0.00 0.00 91 1003.4
20260830173704 64 206 1.0 5.0 0.00 0.00 0.00 91 1003.5
20260830173205 64 185 2.0 9.0 0.00 0.00 0.00 91 1003.5
20260830172704 64 237 1.0 9.0 0.00 0.00 0.00 91 1003.5